Temp
-17 -17 -16 -16 -15 -14 -14 -13 -13 -13 -13 -13 -13 -12 -13 -13 -12 -11 -10 -11 -11 -11 -11 -11 -11 -11 -11 -10 -10 -10 -10 -10 -10 -10 -9 -9 -9 -9 -9 -9 -8 -8 -7 -7 -8
-18 -17 -17 -16 -15 -15 -14 -14 -13 -13 -13 -13 -13 -13 -12 -12 -12 -11 -12 -12 -11 -11 -11 -11 -10 -11 -11 -10 -10 -10 -10 -10 -9 -9 -9 -9 -9 -9 -9 -8 -8 -8 -7 -7 -8
-18 -17 -17 -17 -16 -15 -15 -14 -14 -13 -13 -13 -14 -14 -14 -12 -12 -11 -12 -12 -12 -11 -11 -11 -10 -10 -10 -10 -10 -10 -10 -10 -9 -10 -10 -10 -9 -9 -9 -9 -8 -8 -8 -8 -7
-19 -18 -17 -17 -16 -16 -15 -15 -14 -14 -13 -13 -13 -14 -14 -14 -12 -11 -12 -13 -13 -12 -11 -11 -11 -10 -10 -11 -11 -11 -10 -10 -10 -10 -10 -10 -9 -10 -9 -9 -8 -8 -8 -8 -8
-20 -19 -18 -17 -17 -16 -16 -15 -15 -14 -14 -13 -13 -14 -15 -15 -12 -11 -12 -13 -13 -12 -11 -11 -11 -11 -10 -11 -11 -11 -10 -10 -10 -10 -10 -10 -10 -9 -9 -9 -9 -8 -8 -8 -8
-20 -19 -18 -17 -17 -16 -16 -15 -15 -14 -14 -14 -14 -15 -16 -15 -12 -13 -12 -13 -13 -13 -12 -12 -11 -11 -11 -11 -11 -11 -10 -10 -10 -10 -10 -10 -10 -9 -10 -9 -9 -9 -8 -8 -8
-20 -20 -19 -18 -17 -16 -16 -16 -15 -15 -15 -14 -14 -15 -17 -14 -14 -14 -12 -13 -13 -13 -13 -13 -13 -12 -11 -11 -11 -11 -10 -10 -10 -10 -10 -10 -10 -10 -10 -9 -9 -9 -8 -8 -8
-20 -20 -19 -18 -17 -17 -16 -16 -16 -16 -15 -14 -14 -15 -16 -15 -15 -14 -13 -13 -13 -13 -14 -13 -13 -12 -11 -11 -11 -10 -10 -10 -10 -10 -10 -10 -10 -10 -10 -9 -10 -9 -9 -8 -8
-21 -20 -19 -19 -18 -17 -17 -17 -16 -16 -15 -15 -15 -15 -15 -16 -16 -15 -14 -14 -14 -13 -13 -13 -13 -12 -12 -11 -11 -11 -9 -9 -10 -11 -10 -10 -10 -10 -10 -10 -10 -10 -10 -9 -9
-21 -20 -20 -19 -19 -18 -18 -17 -17 -17 -16 -17 -16 -17 -15 -16 -15 -14 -15 -14 -14 -14 -14 -14 -13 -13 -12 -10 -9 -10 -10 -10 -10 -11 -10 -10 -10 -10 -10 -10 -10 -10 -10 -10 -9
-21 -21 -20 -20 -19 -19 -19 -18 -17 -16 -16 -15 -14 -13 -12 -15 -17 -16 -16 -15 -15 -15 -14 -13 -13 -11 -11 -11 -11 -11 -11 -11 -11 -10 -10 -11 -11 -11 -10 -10 -10 -10 -9 -9 -10
-21 -21 -21 -20 -20 -19 -19 -18 -18 -18 -17 -16 -15 -14 -15 -17 -17 -16 -16 -16 -15 -14 -13 -13 -12 -12 -12 -12 -11 -11 -11 -11 -10 -10 -10 -10 -10 -10 -10 -10 -10 -10 -9 -8 -9
-22 -21 -21 -21 -20 -20 -19 -19 -20 -20 -20 -19 -17 -16 -17 -17 -17 -16 -16 -15 -14 -14 -13 -13 -11 -13 -12 -12 -12 -11 -11 -10 -10 -11 -10 -10 -10 -10 -10 -10 -10 -10 -9 -9 -10
-23 -22 -22 -21 -20 -20 -20 -21 -20 -21 -21 -20 -19 -18 -18 -17 -16 -16 -16 -16 -15 -14 -14 -14 -13 -13 -13 -12 -12 -12 -12 -11 -11 -11 -10 -10 -9 -10 -10 -10 -10 -10 -10 -10 -10
-24 -24 -23 -22 -22 -21 -22 -22 -22 -21 -21 -21 -20 -17 -17 -16 -16 -16 -16 -16 -15 -14 -14 -13 -13 -12 -13 -12 -12 -12 -12 -12 -11 -12 -10 -10 -10 -10 -10 -10 -10 -10 -10 -10 -10
-25 -25 -25 -24 -23 -22 -23 -22 -22 -20 -21 -20 -19 -17 -17 -17 -16 -16 -16 -16 -15 -15 -14 -14 -14 -14 -13 -13 -13 -13 -13 -13 -12 -12 -11 -10 -10 -9 -9 -11 -11 -10 -10 -10 -10
-25 -25 -25 -24 -24 -23 -23 -23 -22 -21 -21 -20 -18 -17 -17 -17 -17 -16 -16 -16 -15 -15 -16 -16 -15 -14 -14 -14 -14 -13 -13 -13 -13 -12 -10 -10 -10 -9 -10 -10 -11 -11 -11 -11 -10
-25 -25 -25 -25 -25 -23 -23 -22 -23 -21 -21 -20 -18 -18 -17 -17 -17 -16 -16 -16 -16 -15 -14 -13 -15 -15 -14 -13 -13 -13 -12 -12 -12 -11 -11 -11 -10 -9 -10 -10 -11 -11 -11 -11 -11
-25 -25 -25 -25 -25 -24 -23 -23 -23 -22 -21 -20 -19 -18 -18 -17 -16 -16 -16 -16 -16 -15 -14 -14 -14 -13 -13 -13 -13 -13 -13 -12 -13 -12 -11 -11 -10 -10 -11 -11 -11 -11 -11 -11 -11
-25 -26 -25 -25 -25 -25 -25 -24 -22 -22 -21 -21 -20 -19 -17 -17 -17 -16 -16 -16 -15 -15 -14 -13 -13 -13 -14 -14 -14 -13 -13 -13 -13 -13 -12 -12 -11 -11 -11 -11 -11 -11 -11 -11 -11
-26 -26 -26 -26 -25 -26 -25 -23 -22 -21 -21 -20 -19 -19 -17 -16 -17 -16 -15 -15 -15 -15 -15 -14 -14 -13 -14 -14 -13 -12 -13 -13 -13 -13 -12 -12 -11 -11 -11 -11 -11 -11 -11 -11 -11
-26 -26 -26 -26 -26 -26 -24 -23 -23 -21 -20 -20 -19 -18 -18 -17 -17 -16 -15 -14 -14 -14 -15 -14 -14 -15 -14 -13 -13 -13 -12 -12 -12 -12 -12 -12 -11 -11 -11 -11 -11 -11 -11 -11 -11
-26 -26 -27 -27 -26 -26 -25 -23 -23 -21 -21 -20 -19 -19 -19 -17 -17 -16 -16 -14 -15 -15 -14 -14 -14 -13 -14 -14 -13 -13 -13 -13 -13 -13 -13 -12 -11 -12 -12 -12 -12 -12 -12 -12 -12
-27 -27 -27 -27 -26 -26 -25 -24 -23 -21 -20 -19 -19 -19 -18 -18 -17 -16 -16 -15 -15 -15 -15 -15 -15 -14 -12 -11 -12 -12 -13 -13 -13 -13 -12 -12 -11 -11 -11 -12 -13 -13 -13 -12 -12
-27 -27 -27 -26 -26 -25 -24 -24 -23 -21 -20 -19 -19 -18 -17 -17 -17 -17 -16 -16 -17 -17 -16 -15 -15 -15 -15 -14 -14 -14 -15 -15 -14 -13 -14 -12 -13 -13 -13 -13 -13 -13 -13 -13 -13
-27 -27 -27 -27 -26 -25 -25 -23 -23 -21 -20 -19 -19 -18 -18 -18 -15 -15 -16 -16 -15 -16 -16 -16 -16 -16 -16 -15 -15 -16 -16 -16 -16 -15 -14 -13 -13 -14 -14 -14 -13 -13 -13 -14 -13
-27 -27 -27 -27 -26 -25 -24 -23 -22 -21 -20 -19 -19 -19 -18 -17 -16 -17 -16 -15 -14 -15 -15 -15 -15 -15 -16 -16 -16 -17 -15 -14 -14 -15 -14 -14 -13 -15 -15 -15 -14 -14 -14 -14 -14
Height
5625 5633 5642 5651 5659 5668 5678 5685 5693 5702 5710 5721 5729 5739 5750 5756 5762 5770 5780 5794 5798 5802 5809 5813 5817 5823 5825 5829 5834 5840 5846 5850 5854 5855 5858 5862 5865 5868 5869 5872 5873 5875 5876 5877 5877
5612 5621 5630 5639 5648 5657 5666 5675 5683 5691 5700 5709 5717 5729 5740 5747 5754 5761 5775 5782 5792 5798 5804 5808 5813 5817 5820 5824 5829 5833 5840 5845 5845 5850 5855 5861 5862 5864 5866 5869 5871 5872 5875 5876 5877
5598 5608 5618 5628 5637 5647 5656 5664 5672 5681 5689 5697 5707 5717 5727 5738 5742 5756 5768 5775 5784 5791 5796 5800 5806 5812 5816 5820 5824 5829 5837 5839 5843 5848 5852 5856 5859 5860 5863 5865 5869 5870 5873 5874 5876
5585 5595 5605 5616 5626 5635 5645 5655 5662 5671 5679 5687 5696 5705 5715 5725 5731 5747 5760 5770 5778 5783 5789 5794 5801 5807 5813 5817 5821 5825 5831 5834 5839 5843 5848 5852 5856 5856 5859 5863 5866 5866 5869 5871 5873
5573 5582 5593 5604 5615 5625 5634 5644 5653 5661 5669 5677 5685 5692 5701 5708 5724 5736 5756 5764 5769 5775 5782 5789 5795 5802 5809 5813 5816 5820 5825 5829 5834 5839 5843 5847 5851 5852 5855 5859 5862 5863 5866 5868 5870
5561 5570 5580 5591 5602 5614 5625 5633 5642 5650 5659 5666 5672 5677 5687 5699 5720 5728 5746 5755 5764 5770 5774 5782 5789 5796 5803 5807 5811 5817 5820 5824 5829 5834 5838 5842 5845 5849 5850 5856 5860 5859 5863 5866 5867
5549 5559 5568 5579 5590 5601 5611 5621 5630 5638 5646 5653 5658 5665 5673 5698 5708 5714 5731 5746 5753 5762 5767 5775 5781 5789 5798 5802 5805 5810 5815 5818 5824 5829 5833 5837 5840 5847 5844 5851 5855 5856 5860 5863 5866
5538 5547 5556 5567 5578 5589 5599 5608 5618 5625 5631 5637 5642 5650 5665 5689 5697 5701 5717 5735 5743 5750 5756 5763 5773 5780 5789 5794 5801 5804 5808 5812 5818 5822 5827 5830 5839 5841 5840 5845 5851 5853 5856 5860 5863
5526 5536 5545 5556 5566 5576 5586 5596 5604 5610 5616 5619 5625 5638 5660 5674 5683 5694 5708 5725 5733 5739 5748 5757 5764 5771 5780 5786 5794 5796 5800 5806 5812 5817 5820 5824 5835 5835 5837 5841 5844 5848 5851 5854 5859
5514 5523 5533 5544 5553 5563 5573 5581 5588 5591 5597 5599 5607 5620 5639 5659 5678 5683 5696 5710 5723 5729 5738 5744 5753 5764 5772 5781 5789 5791 5795 5803 5808 5814 5817 5821 5827 5828 5831 5834 5837 5841 5846 5850 5854
5503 5513 5523 5532 5541 5551 5560 5565 5573 5582 5585 5599 5609 5627 5648 5659 5667 5670 5683 5698 5708 5714 5725 5737 5745 5756 5769 5777 5783 5788 5794 5799 5804 5807 5812 5818 5818 5823 5826 5831 5833 5835 5839 5843 5849
5491 5501 5512 5521 5531 5540 5548 5558 5567 5576 5578 5584 5593 5613 5624 5641 5656 5660 5668 5684 5695 5709 5717 5726 5738 5754 5761 5771 5775 5782 5786 5793 5799 5801 5807 5812 5815 5816 5820 5825 5827 5829 5831 5836 5842
5478 5489 5500 5511 5520 5530 5540 5549 5554 5561 5567 5572 5582 5599 5613 5628 5641 5648 5660 5679 5693 5701 5710 5724 5741 5743 5753 5762 5768 5773 5780 5786 5792 5797 5802 5806 5809 5813 5817 5819 5823 5824 5825 5827 5834
5467 5478 5489 5498 5510 5519 5528 5535 5543 5553 5557 5558 5564 5584 5598 5618 5626 5642 5654 5669 5671 5687 5706 5714 5722 5736 5746 5755 5760 5766 5774 5781 5783 5788 5795 5798 5803 5808 5813 5816 5819 5821 5821 5821 5825
5459 5468 5477 5488 5501 5508 5520 5526 5536 5545 5543 5550 5556 5581 5596 5603 5618 5625 5643 5655 5667 5681 5691 5705 5714 5728 5736 5750 5756 5762 5769 5776 5777 5780 5786 5790 5794 5805 5807 5813 5816 5815 5818 5819 5821
5452 5460 5468 5475 5487 5496 5508 5518 5528 5533 5530 5538 5549 5563 5580 5593 5607 5624 5631 5645 5660 5670 5685 5694 5709 5715 5729 5737 5745 5751 5759 5767 5768 5771 5776 5784 5788 5797 5801 5808 5809 5812 5814 5816 5819
5445 5452 5460 5468 5479 5488 5499 5510 5516 5516 5528 5533 5547 5559 5575 5582 5594 5604 5614 5625 5637 5648 5663 5678 5693 5707 5718 5726 5732 5742 5753 5757 5762 5762 5769 5777 5780 5785 5797 5802 5805 5807 5809 5811 5814
5436 5445 5452 5460 5469 5479 5490 5500 5502 5514 5522 5530 5546 5557 5564 5575 5589 5597 5605 5619 5631 5650 5667 5669 5679 5694 5705 5717 5733 5736 5741 5746 5748 5754 5760 5765 5769 5775 5791 5794 5797 5801 5802 5805 5808
5428 5438 5446 5453 5462 5471 5479 5483 5493 5508 5519 5529 5541 5547 5554 5563 5578 5589 5596 5610 5626 5637 5650 5664 5675 5689 5699 5709 5719 5723 5729 5741 5744 5747 5753 5756 5763 5770 5782 5786 5789 5794 5798 5799 5803
5423 5433 5440 5447 5454 5462 5465 5472 5487 5501 5511 5523 5528 5538 5543 5554 5566 5580 5590 5605 5621 5637 5646 5657 5671 5680 5690 5697 5701 5715 5727 5728 5730 5739 5744 5746 5753 5762 5772 5780 5782 5786 5789 5791 5793
5416 5425 5434 5440 5446 5453 5457 5470 5482 5494 5502 5508 5520 5533 5539 5550 5560 5572 5590 5607 5617 5630 5637 5649 5661 5670 5675 5679 5693 5706 5710 5717 5727 5732 5735 5741 5748 5757 5761 5771 5774 5777 5780 5782 5785
5411 5421 5428 5435 5442 5448 5456 5470 5477 5484 5492 5504 5513 5524 5536 5549 5557 5571 5585 5608 5620 5624 5634 5642 5648 5657 5665 5679 5689 5693 5702 5709 5713 5726 5731 5737 5744 5748 5755 5758 5765 5767 5770 5772 5775
5408 5417 5421 5430 5438 5445 5451 5457 5467 5477 5485 5494 5504 5517 5532 5543 5553 5569 5585 5597 5604 5611 5619 5631 5637 5645 5653 5664 5672 5681 5695 5703 5709 5715 5720 5728 5739 5738 5742 5746 5748 5754 5760 5764 5767
5404 5410 5416 5425 5431 5439 5445 5452 5462 5472 5477 5487 5501 5511 5520 5533 5548 5562 5576 5586 5597 5604 5614 5619 5626 5637 5648 5668 5669 5672 5680 5687 5694 5701 5714 5720 5730 5730 5733 5734 5737 5740 5747 5752 5756
5401 5407 5416 5421 5425 5429 5436 5447 5455 5464 5473 5483 5491 5499 5514 5526 5537 5550 5567 5575 5586 5596 5604 5613 5622 5631 5642 5650 5657 5665 5672 5677 5684 5696 5697 5719 5715 5721 5725 5724 5725 5729 5733 5737 5741
5399 5405 5411 5415 5420 5426 5436 5445 5452 5460 5471 5480 5487 5497 5506 5520 5535 5548 5563 5575 5584 5591 5598 5605 5615 5624 5630 5638 5645 5650 5659 5666 5675 5682 5690 5697 5703 5709 5710 5711 5714 5720 5722 5725 5728
5394 5401 5406 5410 5416 5421 5431 5440 5447 5455 5466 5474 5483 5494 5505 5525 5538 5554 5568 5569 5577 5587 5597 5603 5610 5617 5622 5627 5632 5634 5649 5660 5670 5672 5685 5685 5702 5701 5703 5702 5706 5710 5713 5714 5715
Wind_Speed
62 64 67 67 67 68 67 65 66 70 73 73 71 71 69 66 67 65 64 58 57 54 50 47 42 35 29 29 35 30 33 31 32 32 31 29 24 20 17 13 11 9 9 7 3
58 63 66 66 66 65 65 66 65 65 68 72 72 70 71 70 68 70 62 59 57 55 52 48 45 41 35 30 34 33 33 29 35 34 33 26 26 22 18 16 11 11 11 9 5
56 59 65 66 66 64 62 62 65 66 64 67 72 71 69 71 74 72 63 60 57 55 53 50 48 44 38 32 31 37 33 35 33 31 32 29 27 24 21 18 13 14 13 10 7
56 58 61 66 66 65 62 61 61 63 64 64 68 73 72 69 76 74 66 59 55 55 55 52 49 45 39 33 34 33 35 31 31 31 30 29 26 24 24 20 15 18 16 12 9
56 58 60 63 65 65 63 60 61 63 65 66 64 69 69 72 75 77 67 62 59 57 56 53 50 46 42 34 30 33 34 34 31 29 30 29 29 27 25 22 18 21 17 14 12
55 57 59 61 63 64 65 61 61 64 64 66 66 68 71 71 67 72 70 63 63 59 57 55 52 46 41 38 36 31 30 35 35 35 34 33 30 26 28 24 20 22 18 16 14
55 55 58 62 64 64 61 62 63 66 67 67 67 69 64 61 51 69 73 63 65 60 56 53 49 49 42 43 37 35 35 35 37 36 34 35 32 25 31 26 23 22 19 16 16
54 54 57 61 64 64 63 63 66 67 68 69 72 71 70 67 63 68 72 69 65 65 62 58 55 52 47 48 38 38 38 39 35 34 35 37 30 26 34 28 24 22 19 18 17
52 52 55 61 64 64 63 64 66 67 68 70 74 74 70 73 69 63 74 71 65 68 65 60 58 55 50 49 46 43 41 39 35 33 35 39 28 33 33 29 27 29 26 23 19
49 52 54 56 56 60 60 60 61 64 66 71 76 79 82 80 58 53 70 71 70 68 67 65 61 57 53 51 50 48 42 34 36 29 30 29 30 34 33 32 33 32 29 27 24
50 51 53 54 54 57 57 58 61 63 68 68 72 73 71 76 82 85 77 69 75 70 71 68 64 63 56 51 46 43 40 37 32 31 30 24 25 29 33 25 27 32 33 31 27
52 51 51 52 53 55 57 56 55 54 57 63 68 68 74 80 76 59 74 74 74 74 74 71 69 61 56 49 48 44 42 42 37 36 34 33 29 31 28 22 24 25 30 33 32
53 53 51 51 53 54 53 51 50 46 41 49 63 70 74 77 82 83 75 72 74 77 71 71 69 65 58 53 50 49 45 40 41 39 36 35 35 35 29 25 22 18 22 27 30
52 53 52 53 54 52 53 47 45 43 48 43 58 79 85 81 91 75 68 69 71 76 73 70 70 64 60 55 51 49 39 38 38 42 41 40 38 33 29 26 20 17 17 21 27
49 51 52 54 51 52 45 46 44 49 50 57 58 82 87 90 71 74 74 70 76 77 75 74 72 67 64 57 53 48 46 39 39 40 43 43 44 35 35 28 21 21 17 18 20
49 50 48 55 53 51 51 55 50 48 61 54 63 88 68 73 69 71 74 69 70 76 69 68 67 64 63 58 54 51 44 43 48 48 45 42 43 38 36 26 26 24 18 17 17
51 48 48 52 52 54 58 63 57 56 50 62 63 85 70 67 73 73 79 78 82 79 72 71 69 66 63 59 54 53 45 44 42 46 53 45 45 45 34 30 26 28 27 25 24
51 50 49 51 55 62 58 56 52 53 61 52 63 42 67 69 70 73 75 75 75 74 73 73 74 69 66 64 57 54 55 54 54 50 51 51 48 48 32 33 28 29 29 25 20
50 51 51 52 57 61 65 65 54 42 60 44 52 42 56 73 71 81 73 80 79 82 78 74 68 71 69 64 63 61 55 51 51 51 50 52 52 51 33 33 34 31 30 28 25
53 51 50 51 54 54 63 67 55 49 50 51 55 50 60 81 84 86 73 66 61 71 73 73 67 67 69 66 66 62 57 53 54 56 59 57 54 49 39 31 32 34 34 34 32
55 53 52 52 52 53 64 62 55 54 56 60 45 63 72 79 82 88 81 70 68 66 74 67 71 71 72 73 70 66 67 67 62 59 53 48 42 35 35 32 33 34 35 35 36
56 54 51 51 51 53 66 61 50 64 41 63 63 65 59 74 80 73 72 73 64 67 69 63 57 65 64 65 68 66 66 65 64 61 62 59 55 51 46 43 39 39 38 40 39
50 50 48 46 47 54 60 64 52 63 42 47 65 64 66 64 77 75 70 70 66 67 70 71 70 68 66 62 62 68 66 62 61 59 58 54 52 50 49 46 46 43 41 41 40
44 45 44 42 42 47 60 64 53 52 64 44 60 59 63 61 76 71 73 71 69 67 72 74 74 71 66 61 57 54 59 65 65 64 59 58 52 54 54 53 49 47 45 44 45
44 42 38 36 41 47 61 61 53 44 59 52 53 61 62 60 70 74 74 75 63 57 64 71 72 69 66 65 62 56 59 64 64 60 60 52 52 51 49 52 54 54 54 52 49
34 33 28 27 28 41 53 56 51 57 53 52 49 56 60 61 62 64 76 73 72 67 57 63 71 67 65 67 67 64 58 51 55 61 60 58 57 54 55 58 57 53 51 47 46
27 26 24 22 26 38 51 41 49 54 49 47 55 57 61 53 51 58 62 69 62 68 56 54 60 63 66 64 63 67 62 57 52 50 50 53 41 48 49 51 49 47 45 45 46
Wind_Direction
231 230 229 226 227 225 225 225 227 227 227 227 228 227 227 228 224 223 222 226 227 225 228 228 231 228 221 226 220 230 226 227 225 231 234 229 239 241 240 253 256 253 253 243 227
230 229 228 227 224 225 227 226 226 227 228 229 229 229 225 228 227 222 223 225 227 230 232 233 234 227 222 220 223 225 223 223 223 228 234 233 238 235 236 238 237 239 239 231 210
228 228 227 228 225 223 224 227 227 228 227 228 228 228 228 226 230 221 225 225 226 227 231 232 233 228 228 225 220 226 222 227 227 227 228 226 228 233 232 233 228 228 231 225 207
227 227 228 228 225 225 223 225 229 229 229 228 229 228 227 226 228 225 226 226 226 227 229 231 231 230 230 226 222 228 222 219 217 218 221 224 223 230 229 230 222 227 225 218 209
226 225 226 227 225 224 224 227 228 229 228 228 229 229 227 225 226 226 225 226 225 225 228 232 233 230 228 222 220 224 217 214 209 226 221 223 227 224 234 226 221 232 226 218 211
224 224 225 226 224 222 222 225 228 230 227 228 228 228 227 227 227 231 224 228 228 225 227 229 232 229 226 219 224 217 224 229 226 226 228 222 224 226 234 226 220 233 229 225 218
224 222 222 223 223 222 224 226 227 228 229 225 226 227 219 220 226 230 225 224 226 227 226 228 229 231 224 218 220 215 224 223 230 227 233 221 226 225 235 230 223 228 234 232 230
225 222 221 220 221 221 223 226 226 226 229 226 226 224 214 214 223 225 226 222 225 226 225 223 224 228 223 221 219 224 218 222 218 227 221 226 225 227 232 231 221 232 238 239 235
226 226 223 220 221 221 221 224 225 226 227 228 224 223 215 212 219 231 227 222 225 226 226 224 224 225 222 221 217 222 220 221 221 227 228 232 235 236 238 234 233 231 234 240 237
227 227 225 225 225 223 225 226 227 228 229 228 223 217 212 209 214 224 222 222 223 224 224 224 224 224 222 224 221 224 224 224 222 222 233 233 228 236 235 231 233 238 233 240 243
228 227 227 227 228 227 229 231 230 229 229 230 230 227 224 217 215 222 227 222 221 221 222 224 225 224 224 224 223 225 227 225 219 221 221 219 222 226 237 235 241 241 239 235 240
227 229 228 230 230 231 232 233 235 235 236 232 228 223 217 215 213 224 222 217 220 223 223 222 225 225 225 222 224 225 226 227 225 221 225 227 222 228 233 231 237 242 247 240 237
223 226 227 229 230 232 234 235 234 232 231 234 229 217 212 207 209 223 226 224 223 223 225 227 228 224 224 221 224 224 224 227 230 229 225 231 232 232 241 244 253 276 260 242 227
217 218 221 224 228 229 231 229 225 210 215 223 225 206 203 206 212 214 215 211 214 219 224 225 225 225 226 224 222 225 225 225 233 230 229 231 234 236 238 246 254 255 247 229 221
213 212 213 218 220 222 217 209 197 197 225 228 220 200 204 205 211 211 215 218 218 222 218 222 224 225 225 226 224 223 222 221 224 233 226 232 239 229 240 243 246 241 231 228 231
210 213 214 212 210 211 200 190 188 203 224 228 213 200 195 203 215 209 208 211 210 211 215 222 223 221 224 222 223 220 210 211 221 234 230 231 239 232 238 240 239 230 232 238 238
209 213 216 213 207 200 194 192 200 211 217 227 212 205 197 196 205 210 210 208 209 208 208 216 219 220 222 220 219 224 214 227 218 232 239 232 237 242 235 242 242 237 237 246 249
210 210 215 211 205 198 187 195 210 206 208 222 197 198 209 204 205 208 209 206 209 212 218 218 215 217 219 223 225 217 214 219 223 228 236 241 240 245 235 240 244 235 235 240 251
207 209 212 213 208 206 197 205 210 206 211 217 212 209 208 204 206 201 208 212 212 210 213 220 223 218 219 222 222 220 220 227 231 236 239 241 242 246 237 236 237 234 236 252 250
208 208 212 214 214 215 217 212 204 198 199 215 225 210 213 205 204 205 201 203 209 209 212 217 226 224 220 219 220 220 218 215 219 230 236 242 244 241 242 239 239 242 244 248 251
205 206 210 213 216 218 221 206 199 195 197 209 211 208 211 204 202 204 208 210 212 212 215 213 219 224 221 219 223 224 225 227 231 233 234 236 243 241 246 245 245 245 248 251 256
207 208 213 218 220 224 222 208 204 203 185 204 210 209 211 209 205 204 211 214 210 214 214 212 211 219 225 227 227 226 231 231 232 236 241 248 254 258 259 260 251 249 245 246 249
206 211 219 223 223 228 227 215 207 200 191 195 210 214 214 211 206 209 206 211 210 208 210 215 217 220 223 226 227 229 232 233 235 236 239 242 246 253 255 255 255 247 244 245 247
210 215 220 225 225 229 229 219 216 200 203 195 198 210 203 207 209 208 210 212 212 214 214 217 218 218 224 235 233 232 231 233 234 236 241 244 247 251 253 254 253 254 254 251 251
211 215 221 228 227 231 225 219 212 188 201 199 195 202 211 209 207 208 206 205 206 209 216 220 218 219 222 226 229 233 237 238 236 237 238 240 244 248 251 254 255 256 257 258 260
214 217 224 228 228 229 223 219 212 200 198 190 198 203 211 211 200 207 206 213 218 219 218 220 222 224 223 225 230 235 236 236 236 235 235 233 234 238 244 247 250 255 258 261 263
212 210 217 218 225 228 222 218 207 209 194 185 197 203 210 201 208 210 215 219 215 219 221 216 216 221 225 229 232 235 232 233 236 241 239 240 235 246 248 254 253 255 259 260 261